Date String (YYYY-MM-DD hh:mm:ss) UTC,Instrument flags,Ambient pressure (hPa),Sample flow (lpm),Bypass flow (lpm),Sample temperature (°C),Ambient temperature (°C),ASC tube jacket temperature (°C),LED temperature (°C),Box temperature (°C),Sample RH (%),Span deviation,Mass concentration (μg/m³),Mass concentration (μg/m³),Mass concentration (μg/m³)
DateTimeUTC,F1_M11,P_M11,Q1_M11,Q2_M11,T1_M11,T2_M11,T3_M11,T4_M11,T5_M11,U1_M11,ZSPAN_M11,X0_M11,X2_M11,X1_M11
2022-07-12 23:00:00,,0828.3,4.99,0.00,29.2,26.9,00.0,37.9,30.9,27.3,0000.0,0007.80,0004.62,0004.24
2022-07-12 23:01:00,,0828.3,5.01,0.00,29.1,27.1,00.0,37.9,31.0,25.9,0000.0,0007.69,0004.55,0004.18
2022-07-12 23:02:00,,0828.3,5.01,0.00,29.1,27.3,00.0,37.9,31.0,28.7,0000.0,0007.75,0004.52,0004.15
2022-07-12 23:03:00,,0828.3,4.99,0.00,29.2,27.5,00.0,37.9,31.1,25.7,0000.0,0008.06,0004.52,0004.15
2022-07-12 23:04:00,,0828.3,5.01,0.00,29.2,27.7,00.0,37.9,31.1,26.5,0000.0,0008.05,0004.56,0004.19
2022-07-12 23:05:00,,0828.3,5.00,0.00,29.2,27.9,00.0,37.9,31.2,24.7,0000.0,0008.21,0004.65,0004.24
2022-07-12 23:06:00,,0828.4,5.00,0.00,29.3,28.1,00.0,38.0,31.3,26.6,0000.0,0008.35,0004.76,0004.30
2022-07-12 23:07:00,,0828.4,5.00,0.00,29.3,28.2,00.0,38.0,31.3,26.4,0000.0,0008.32,0004.84,0004.36
2022-07-12 23:08:00,,0828.4,5.00,0.00,29.3,28.3,00.0,38.0,31.4,26.3,0000.0,0008.75,0004.94,0004.42
2022-07-12 23:09:00,,0828.4,5.01,0.00,29.4,28.5,00.0,38.0,31.4,25.3,0000.0,0009.49,0005.05,0004.48
2022-07-12 23:10:00,,0828.5,5.00,0.00,29.4,28.5,00.0,38.0,31.5,26.7,0000.0,0010.40,0005.17,0004.55
2022-07-12 23:11:00,,0828.3,4.99,0.00,29.4,27.9,00.0,38.0,31.4,25.5,0000.0,0010.49,0005.23,0004.62
2022-07-12 23:12:00,,0828.4,4.99,0.00,29.4,27.3,00.0,37.9,31.3,22.8,0000.0,0010.52,0005.30,0004.67
2022-07-12 23:13:00,,0828.4,5.00,0.00,29.3,27.1,00.0,37.9,31.1,22.5,0000.0,0010.64,0005.34,0004.71
2022-07-12 23:14:00,,0828.5,5.00,0.00,29.3,27.1,00.0,37.9,31.0,22.5,0000.0,0010.75,0005.37,0004.74
2022-07-12 23:15:00,,0828.5,5.00,0.00,29.2,27.3,00.0,37.9,31.1,24.3,0000.0,0011.00,0005.41,0004.74
2022-07-12 23:16:00,,0828.5,5.01,0.00,29.2,27.4,00.0,37.9,31.1,24.3,0000.0,0010.98,0005.39,0004.73
2022-07-12 23:17:00,,0828.5,5.00,0.00,29.3,27.6,00.0,38.0,31.2,25.4,0000.0,0010.91,0005.35,0004.71
2022-07-12 23:18:00,,0828.5,5.00,0.00,29.3,27.8,00.0,38.0,31.2,25.2,0000.0,0010.90,0005.35,0004.69
2022-07-12 23:19:00,,0828.4,5.01,0.00,29.3,28.0,00.0,38.0,31.3,25.5,0000.0,0010.64,0005.30,0004.66
2022-07-12 23:20:00,,0828.4,5.00,0.00,29.3,28.1,00.0,38.0,31.3,25.7,0000.0,0009.84,0005.21,0004.62
2022-07-12 23:21:00,,0828.4,5.00,0.00,29.4,28.3,00.0,38.0,31.4,25.1,0000.0,0009.01,0005.17,0004.59
2022-07-12 23:22:00,,0828.5,5.01,0.00,29.4,28.4,00.0,38.1,31.4,26.2,0000.0,0009.56,0005.18,0004.56
2022-07-12 23:23:00,,0828.5,5.01,0.00,29.5,28.3,00.0,38.1,31.4,25.4,0000.0,0010.00,0005.15,0004.54
2022-07-12 23:24:00,,0828.5,5.00,0.00,29.4,27.6,00.0,38.0,31.3,23.9,0000.0,0010.20,0005.17,0004.52
2022-07-12 23:25:00,,0828.4,5.00,0.00,29.4,27.1,00.0,38.0,31.2,23.2,0000.0,0009.73,0005.19,0004.49
2022-07-12 23:26:00,,0828.4,5.01,0.00,29.3,27.0,00.0,38.0,31.1,23.8,0000.0,0009.64,0005.18,0004.48
2022-07-12 23:27:00,,0828.3,5.01,0.00,29.3,27.1,00.0,38.0,31.0,24.9,0000.0,0009.72,0005.22,0004.49
2022-07-12 23:28:00,,0828.3,4.99,0.00,29.2,27.2,00.0,38.0,31.1,24.4,0000.0,0009.79,0005.24,0004.49
2022-07-12 23:29:00,,0828.2,5.00,0.00,29.3,27.4,00.0,38.0,31.1,24.0,0000.0,0010.28,0005.25,0004.49
2022-07-12 23:30:00,,0828.3,5.00,0.00,29.3,27.6,00.0,38.0,31.2,21.9,0000.0,0011.21,0005.30,0004.47
2022-07-12 23:31:00,,0828.2,4.99,0.00,29.3,27.8,00.0,38.0,31.2,21.7,0000.0,0012.59,0005.40,0004.44
2022-07-12 23:32:00,,0828.2,5.00,0.00,29.3,28.0,00.0,38.0,31.3,22.2,0000.0,0013.90,0005.38,0004.40
2022-07-12 23:33:00,,0828.1,5.00,0.00,29.3,28.1,00.0,38.0,31.4,22.5,0000.0,0013.59,0005.34,0004.35
2022-07-12 23:34:00,,0828.1,5.01,0.00,29.4,28.3,00.0,38.0,31.4,21.5,0000.0,0013.15,0005.30,0004.30
2022-07-12 23:35:00,,0828.0,5.00,0.00,29.4,28.4,00.0,38.0,31.5,22.1,0000.0,0014.00,0005.23,0004.23
2022-07-12 23:36:00,,0828.0,5.00,0.00,29.5,28.2,00.0,38.0,31.4,22.1,0000.0,0014.15,0005.16,0004.15
2022-07-12 23:37:00,,0828.0,5.00,0.00,29.4,27.5,00.0,38.0,31.3,22.0,0000.0,0014.03,0005.10,0004.08
2022-07-12 23:38:00,,0828.0,5.00,0.00,29.4,27.1,00.0,38.0,31.2,21.2,0000.0,0013.85,0005.01,0003.99
2022-07-12 23:39:00,,0827.9,5.01,0.00,29.3,27.1,00.0,38.0,31.1,21.5,0000.0,0013.74,0004.91,0003.91
2022-07-12 23:40:00,,0827.9,5.00,0.00,29.3,27.2,00.0,38.0,31.1,22.1,0000.0,0013.46,0004.81,0003.85
2022-07-12 23:41:00,,0827.9,5.00,0.00,29.3,27.4,00.0,38.0,31.1,22.4,0000.0,0012.33,0004.70,0003.80
2022-07-12 23:42:00,,0827.9,4.99,0.00,29.3,27.5,00.0,38.0,31.2,22.1,0000.0,0011.33,0004.54,0003.76
2022-07-12 23:43:00,,0827.9,5.01,0.00,29.3,27.7,00.0,38.0,31.2,22.2,0000.0,0009.54,0004.45,0003.73
2022-07-12 23:44:00,,0827.9,4.99,0.00,29.3,27.9,00.0,38.0,31.3,21.9,0000.0,0009.32,0004.39,0003.72
2022-07-12 23:45:00,,0828.0,5.00,0.00,29.3,28.1,00.0,38.0,31.3,21.0,0000.0,0009.92,0004.40,0003.72
2022-07-12 23:46:00,,0828.0,5.00,0.00,29.4,28.2,00.0,38.0,31.4,21.4,0000.0,0008.91,0004.39,0003.72
2022-07-12 23:47:00,,0828.0,5.00,0.00,29.4,28.3,00.0,38.1,31.4,20.7,0000.0,0008.54,0004.33,0003.74
2022-07-12 23:48:00,,0828.0,5.00,0.00,29.5,28.5,00.0,38.1,31.5,21.0,0000.0,0008.56,0004.32,0003.76
2022-07-12 23:49:00,,0828.0,5.00,0.00,29.5,28.5,00.0,38.1,31.5,21.0,0000.0,0008.56,0004.31,0003.76
2022-07-12 23:50:00,,0828.0,4.99,0.00,29.5,27.8,00.0,38.1,31.4,22.5,0000.0,0008.43,0004.28,0003.78
2022-07-12 23:51:00,,0828.0,5.01,0.00,29.4,27.1,00.0,38.0,31.3,22.8,0000.0,0008.40,0004.30,0003.78
2022-07-12 23:52:00,,0827.9,4.99,0.00,29.4,27.1,00.0,38.0,31.2,22.1,0000.0,0008.53,0004.27,0003.79
2022-07-12 23:53:00,,0827.9,5.00,0.00,29.3,27.2,00.0,38.0,31.1,20.9,0000.0,0008.38,0004.28,0003.80
2022-07-12 23:54:00,,0828.0,5.00,0.00,29.3,27.3,00.0,38.0,31.1,19.4,0000.0,0008.44,0004.31,0003.82
2022-07-12 23:55:00,,0827.8,5.00,0.00,29.3,27.5,00.0,38.0,31.1,20.0,0000.0,0008.66,0004.33,0003.84
2022-07-12 23:56:00,,0827.9,4.99,0.00,29.3,27.7,00.0,38.0,31.2,20.5,0000.0,0008.21,0004.29,0003.84
2022-07-12 23:57:00,,0827.8,5.02,0.00,29.3,27.9,00.0,38.0,31.3,20.3,0000.0,0008.52,0004.29,0003.85
2022-07-12 23:58:00,,0827.9,5.00,0.00,29.4,28.1,00.0,38.1,31.3,20.8,0000.0,0009.30,0004.36,0003.87
2022-07-12 23:59:00,,0827.9,5.00,0.00,29.4,28.2,00.0,38.1,31.4,21.0,0000.0,0009.51,0004.36,0003.88
